Regional Weather Roundup
Issued by NWS

Home | Current Version | Previous Version | Text Only | Print | Product List | Glossary On
Versions: 1 2 3 4 5 6 7 8 9 10 11 12 13 14 15 16 17 18 19 20 21 22 23 24 25 26 27 28 29 30 31 32 33 34 35 36 37 38 39 40 41 42 43 44 45 46 47 48 49 50
000
ASUS45 KPSR 282210
RWRAZ

ARIZONA REGIONAL HOURLY WEATHER ROUNDUP
NATIONAL WEATHER SERVICE PHOENIX AZ
300 PM MST SAT MAR 28 2015

NOTE: FAIR INDICATES FEW OR NO CLOUDS BELOW 12,000 FEET WITH NO
SIGNIFICANT WEATHER AND/OR OBSTRUCTIONS TO VISIBILITY.

AZZ001>003-036-282300-
NORTHWEST ARIZONA

CITY           SKY/WX    TMP DP  RH WIND       PRES   REMARKS
BULLHEAD CITY  SUNNY     95  25   8 S8G16     29.93F
KINGMAN        SUNNY     83  22  10 SW15G23   30.09F
$$

AZZ004>008-015-016-018-282300-
NORTH CENTRAL ARIZONA

CITY           SKY/WX    TMP DP  RH WIND       PRES   REMARKS
GRAND CANYON   SUNNY     72  19  13 W14G22    30.24F
WILLIAMS       SUNNY     70  16  12 W9G17     30.33F
PRESCOTT       SUNNY     78  15   9 W10G21    30.18F
FLAGSTAFF      SUNNY     68  12  11 SW13G24   30.27F
PAYSON         SUNNY     77  18  10 SW9       30.21F
PAGE           SUNNY     81  18   9 SW7       30.07F
$$

AZZ009>014-017-282300-
NORTHEAST ARIZONA

CITY           SKY/WX    TMP DP  RH WIND       PRES   REMARKS
WINSLOW        SUNNY     83  -5   3 W20G29    30.13F
SAINT JOHNS    SUNNY     79   9   7 W13G20    30.15F
WINDOW ROCK    SUNNY     75   6   7 W14G22    30.21F
SHOW LOW       SUNNY     73   0   5 W20G25    30.26F
$$

AZZ023-282300-
GREATER PHOENIX AREA

CITY           SKY/WX    TMP DP  RH WIND       PRES   REMARKS
PHOENIX        SUNNY     94  16   6 VRB6      29.96F
BUCKEYE        SUNNY     90  25   9 CALM      29.97F
GLENDALE       SUNNY     95  19   6 CALM      29.98F
LUKE AFB       SUNNY     92  24   8 CALM      29.96F
DEER VALLEY    SUNNY     89  17   7 SW8       29.98F
SCOTTSDALE     SUNNY     90  14   6 W6        30.00F
MESA-FALCON    SUNNY     91  18   6 SW7         N/A
MESA-GATEWAY   SUNNY     90  23   9 W5        30.01F
CHANDLER       SUNNY     91  19   7 SW8       29.99F
$$

AZZ027-028-282300-
SOUTHWEST MARICOPA COUNTY AND PINAL COUNTY

CITY           SKY/WX    TMP DP  RH WIND       PRES   REMARKS
CASA GRANDE    SUNNY     91  28  10 CALM      29.98F
GILA BEND      FAIR      94  13   5 NW12G17   29.95F
$$

AZZ503-504-507>509-282300-
SOUTHEAST ARIZONA

CITY           SKY/WX    TMP DP  RH WIND       PRES   REMARKS
TUCSON         SUNNY     91  15   6 CALM      30.06F
RYAN FIELD       N/A     91  27   9 CALM      30.05F
NOGALES        SUNNY     87  18   8 W12       30.11F
SIERRA VISTA   SUNNY     84   9   6 W13G22    30.15F
DOUGLAS        SUNNY     86  17   8 VRB6      30.12F
SAFFORD        SUNNY     89  13   6 NW14      30.04F
$$

AZZ020-021-025-026-031-282300-
SOUTHWEST ARIZONA

CITY           SKY/WX    TMP DP  RH WIND       PRES   REMARKS
YUMA           SUNNY     97  33  10 W6        29.92F
$$

CAZ031-033-041-043-047-048-061-282300-
SOUTHERN CALIFORNIA

CITY           SKY/WX    TMP DP  RH WIND       PRES   REMARKS
DOWNTOWN L.A.  SUNNY     80  56  43 CALM      30.01F
L.A. AIRPORT   MOSUNNY   69  59  70 W10       30.03F
SAN DIEGO      MOSUNNY   71  57  61 NW10      30.03F
BURBANK        SUNNY     86  36  16 S9        30.01F
ONTARIO        MOSUNNY   88  28  11 SW13      30.01F
RIVERSIDE      SUNNY     89  29  11 W12G20    30.00F
PALM SPRINGS   SUNNY     98  20   6 E8        29.92F
EL CENTRO NAS  MOSUNNY   98  33  10 SE13      29.89F
IMPERIAL       SUNNY     97  32  10 SE8       29.89F
BLYTHE         SUNNY     94  30  10 S5        29.92F
NEEDLES        SUNNY     96  21   6 S6        29.94F
$$

NVZ020-UTZ003-282300-
SOUTHERN NEVADA-UTAH

CITY           SKY/WX    TMP DP  RH WIND       PRES   REMARKS
LAS VEGAS      SUNNY     90  15   6 S13G26    29.95F
SALT LAKE CITY PTSUNNY   72  26  18 N16       30.10S
$$

NMZ009-TXZ055-282300-
NEW MEXICO-WEST TEXAS

CITY           SKY/WX    TMP DP  RH WIND       PRES   REMARKS
ALBUQUERQUE    SUNNY     79  19  10 W8        30.10F
EL PASO        SUNNY     86   9   5 W7G16     30.07F
$$


........................KEY........................
SKY/WX - SKY CONDITION/WEATHER
TMP    - TEMPERATURE IN FAHRENHEIT
DP     - DEW POINT IN FAHRENHEIT
RH     - RELATIVE HUMIDITY IN PERCENT
WIND   - DIRECTION AND SPEED IN MILES PER HOUR (MPH)
VRB    - VARIABLE WIND DIRECTION
PRES   - MEAN SEA LEVEL PRESSURE IN INCHES OF MERCURY
         F - FALLING PRESSURE   R - RISING PRESSURE
         S - STEADY PRESSURE
VSB    - VISIBILITY IN MILES
HX     - HEAT INDEX IN FAHRENHEIT
WCI    - WIND CHILL INDEX IN FAHRENHEIT
TC     - TEMPERATURE IN CELSIUS WHICH IS ALSO KNOWN AS
         TEMPERATURE IN CENTIGRADE
AFB    - AIR FORCE BASE
         LUKE AFB IS LUKE AIR FORCE BASE
         DAVIS-MONTHAN IS DAVIS-MONTHAN AIR FORCE BASE
NAS    - NAVAL AIR STATION
         EL CENTRO NAS IS EL CENTRO NAVAL AIR STATION
N/A    - NOT AVAILABLE




USA.gov is the U.S. government's official web portal to all federal, state and local government web resources and services.